NOAA 16 DEB, 41343

Orbit data source: Space-Track

NOAA 16 DEB, 41343 is space debris in SSO originally from a launch on Thu, 21 Sep 2000 UTC launched from the Air Force Western Test Range (AFWTR). Debris objects in space refer to the collection of defunct objects orbiting the Earth. Examples of debris include non-operational satellites, rocket bodies, and fragments generated from explosions, collisions, or faulty payload assembly.

Loading next visibility...
Identifier
41343, 2000-055HL
Orbit
SSO
Country
Flag of USUS
Related business
Manufacturer
Unknown
Mission
Spacecraft
Bus & Motor
Unknown
Mass
Unknown
Launch date (UTC)
2000-09-21 (25 years ago)
Launch vehicle
Unknown
Launch site
Air Force Western Test Range (AFWTR)
Object type
Payload
Rocket body
Debris
Shape & HBR
Unknown shape, 0.1 m
Radar Cross Section
Small (<0.1 m²)

Expand to show TLE details & history
Last TLE update: 13 hours ago

TLE from 13 hours ago
0 NOAA 16 DEB
1 41343U 00055HL  25298.42551677  .00006689  00000-0  24576-2 0  9993
2 41343  98.6076 352.2369 0023006 210.1859 149.8001 14.32857743504770
Epoch: 2025-10-25T10:12Z
TLE epoch observation values (Epoch: 2025-10-25T10:12:44.648Z)
Latitude
-0.00002°
Longitude
164.99462°
Altitude
799.379 km
Speed
7.446 km/s
True Right ascension
23h 28m 56s
True Declination
0° 00' 00"
Sunlit
Object was in full shadow at epoch
Visualization orbit readout
Latitude
Unknown
Longitude
Unknown
Altitude
Unknown
Speed
Unknown
Apparent Right ascension
Unknown
Apparent Declination
Unknown
Sunlit
N/A
Visualization observer readout
Local Sidereal Time
18:01:29
Azimuth
Unknown
Elevation
Unknown
Doppler factor
Unknown
Orbital elements
Apogee altitude
795.797 km
Perigee altitude
762.864 km
Semi-major axis
7,157.468 km
Eccentricity
0.0023
Inclination
98.6076°
RAAN
352.2369°
Arg. of periapsis
210.1859°
True anomaly
149.93238°
Mean anomaly
149.8001°
Eccentric anomaly
149.86627°
Mean motion
3.5843 °/min
Orbital period
100.44 mins
BSTAR
0.0024576
Loading maneuver chart data...
Computing Atmospheric mass density...

Documentation

Showing up to 5 results
|